Date,TemperatureHighF,TemperatureAvgF,TemperatureLowF,DewpointHighF,DewpointAvgF,DewpointLowF,HumidityHigh,HumidityAvg,HumidityLow,PressureMaxIn,PressureMinIn,WindSpeedMaxMPH,WindSpeedAvgMPH,GustSpeedMaxMPH,PrecipitationSumIn
2013-5-1,67.3,55.7,41.6,36.0,30.7,26.0,60,41,22,30.40,30.27,9,2,15,0.00
2013-5-2,73.8,59.0,46.9,41.0,36.1,26.0,67,44,28,30.38,30.25,11,2,15,0.00
2013-5-3,61.0,49.4,37.2,41.0,34.9,26.0,81,59,40,30.42,30.31,13,3,16,0.00
2013-5-4,65.9,54.6,43.4,43.0,37.1,24.0,84,55,31,30.34,30.17,11,2,19,0.00
2013-5-5,65.2,52.6,37.9,34.0,28.9,22.0,64,42,21,30.22,30.14,10,2,19,0.00
2013-5-6,68.5,55.1,37.6,41.0,32.4,24.0,73,46,23,30.18,30.06,9,2,15,0.00
2013-5-7,73.2,60.6,45.9,50.0,42.9,36.0,87,56,28,30.09,30.00,10,2,20,0.00
2013-5-8,63.3,56.2,49.5,56.0,53.4,48.0,98,90,72,30.10,29.97,11,3,21,0.96
2013-5-9,61.8,54.5,49.5,55.0,51.6,49.0,98,90,67,29.97,29.82,9,1,13,0.28
2013-5-10,69.4,60.9,50.5,57.0,51.0,48.0,95,71,50,29.91,29.80,9,2,16,0.00
2013-5-11,60.1,57.2,52.1,59.0,54.4,49.0,96,90,76,29.79,29.60,10,3,25,0.31
2013-5-12,56.1,47.4,36.9,49.0,37.8,25.0,93,71,43,29.76,29.55,13,2,22,0.00
2013-5-13,42.2,36.4,32.8,29.0,26.4,24.0,78,68,53,30.04,29.75,16,4,27,0.00
2013-5-14,48.1,40.2,32.9,30.0,26.7,25.0,75,60,44,30.04,29.98,13,2,16,0.00
2013-5-15,54.4,42.8,30.3,48.0,35.2,25.0,97,76,44,30.02,29.63,22,4,28,0.14
2013-5-16,68.1,58.5,48.9,47.0,39.0,31.0,86,51,31,29.76,29.63,18,4,46,0.00
2013-5-17,59.6,50.1,40.7,40.0,36.9,34.0,84,62,41,30.19,29.77,12,4,22,0.00
2013-5-18,66.5,54.9,42.5,44.0,38.1,33.0,78,55,35,30.25,30.17,11,1,16,0.00
2013-5-19,59.0,50.8,44.5,51.0,47.0,41.0,97,87,72,30.25,30.12,11,3,22,0.07
2013-5-20,70.3,60.6,49.6,62.0,56.7,49.0,98,87,73,30.11,29.92,11,2,21,0.00
2013-5-21,79.4,66.1,50.2,65.0,58.9,49.0,98,80,55,29.93,29.75,9,2,25,1.27
2013-5-22,74.1,64.8,48.7,67.0,61.9,48.0,98,90,71,29.83,29.76,10,2,14,1.27
2013-5-23,72.6,63.9,60.0,64.0,61.6,59.0,98,92,74,29.77,29.65,12,3,19,0.09
2013-5-24,60.3,49.5,38.2,60.0,47.8,37.0,98,94,87,29.83,29.57,15,5,30,0.74
2013-5-25,39.9,37.1,33.6,38.0,35.5,32.0,95,94,90,29.83,29.77,23,7,39,0.51
2013-5-26,46.7,39.0,33.3,40.0,36.3,32.0,95,90,76,30.07,29.75,22,5,35,0.12
2013-5-27,62.3,50.7,38.6,42.0,36.8,33.0,87,62,41,30.14,30.07,12,2,24,0.00
2013-5-28,65.9,55.1,42.2,50.0,41.1,34.0,86,61,42,30.18,30.08,10,2,18,0.00
2013-5-29,69.6,58.6,51.4,64.0,56.8,50.0,98,93,78,30.07,29.91,10,2,27,0.62
2013-5-30,77.9,70.1,61.2,66.0,62.7,59.0,93,78,62,30.04,29.97,11,2,23,0.00
2013-5-31,83.3,74.8,59.7,66.0,62.0,57.0,92,66,44,30.03,29.88,10,1,19,0.00